sat.trackr.live / text

‹ back to catalog

UNKNOWN

NORAD 85027

UNKNOWN UNKNOWN UNKNOWN

§ Identity

Operator
Country
Launch date
Launch site
Launch vehicle
Mass (kg)
RCS (m²)

External: N2YO · Heavens-Above

§ Orbital elements

Epoch: 2026-05-23T01:31:50.757888Z

Period
104.78 min
Inclination
66.0423°
Eccentricity
0.0166497
Mean motion
13.74314442 rev/d
Perigee alt
861.5 km
Apogee alt
1,106.7 km
Semi-major
7,362.3 km
B*
1.6112e-4
RAAN
66.4537°
Arg perigee
102.5825°
Mean anomaly
259.3916°
Rev number
62,678

§ Raw data

UNKNOWN1 85027U          26143.06378192  .00000090  00000+0  16112-3 0  99962 85027  66.0423  66.4537 0166497 102.5825 259.3916 13.74314442626789

JSON: /api/v1/satellites/85027 · /tle

For live sub-satellite position, see the globe view (requires WebGL).

§ Visibility from observer

Set your observer location to see the next 7 days of passes ≥ 10°. The values pass through the URL so the page stays shareable.

No JS? Fill the form by hand. The geolocation button needs JavaScript.